Simultaneous Nadir Overpasses (SNOs) Predictions

Prediction of SNOs between AQUA and METOP-C Satellite Orbit:

Table of predicted SNOs for the next 14.0 days since TLE Epoch: 4/24/2021
Index Date (AQUA) Time (AQUA) Lat,Lon (AQUA) SZA (AQUA ) Date (METOP-C) Time (METOP-C) Lat,Lon (METOP-C) SZA (METOP-C ) Distance(km) Time Diff (sec)
1 04/26/2021 04:47:57 73.68, 102.55 60.07 04/26/2021 04:47:03 73.68, 102.49 60.08 1.69 54
2 04/26/2021 05:37:24 -73.76, -89.98 119.86 04/26/2021 05:37:42 -73.78, -89.95 119.84 2.50 18
3 04/26/2021 06:27:04 74.40, 76.18 60.82 04/26/2021 06:28:10 74.40, 78.93 60.74 82.05 66
4 04/29/2021 00:22:11 73.71, 168.92 59.21 04/29/2021 00:21:24 73.69, 168.92 59.20 2.18 47
5 04/29/2021 01:11:38 -73.78, -23.60 120.73 04/29/2021 01:12:03 -73.80, -23.50 120.72 3.28 25
6 05/01/2021 19:56:25 73.70,-124.61 58.34 05/01/2021 19:55:46 73.70,-124.65 58.35 1.28 39
7 05/01/2021 20:45:52 -73.76, 42.89 121.61 05/01/2021 20:46:26 -73.76, 42.82 121.61 2.07 34
8 05/04/2021 15:30:39 73.69, -58.16 57.51 05/04/2021 15:30:08 73.70, -58.24 57.53 2.72 31
9 05/04/2021 16:20:07 -73.80, 109.24 122.39 05/04/2021 16:20:48 -73.77, 109.26 122.42 3.31 41
10 05/07/2021 11:04:52 73.69, 8.28 56.72 05/07/2021 11:04:29 73.71, 8.17 56.74 3.49 23
11 05/07/2021 11:54:20 -73.80, 175.69 123.19 05/07/2021 11:55:09 -73.78, 175.68 123.20 1.65 49



Historial Predications of SNOs between AQUA and METOP-C
